Location: Newark
(44.6833°N, 7.1833°E)
Time: 16:23:15
(UTC+00:00)

ISS - Visible Passes

Search period start: 27 January 2020 00:00
Search period end: 06 February 2020 00:00
Orbit: 416 x 423 km, 51.6° (Epoch: 28 January)

Date Brightness Start Highest point End Pass type
(mag) Time Alt. Az. Time Alt. Az. Time Alt. Az.
27 Jan -2.3 18:16:04 10° WNW 18:18:59 26° N 18:19:20 25° N visible
28 Jan -2.4 17:28:17 10° WNW 17:31:19 29° NNW 17:33:46 14° NE visible
28 Jan -0.9 19:05:54 10° NW 19:06:44 15° NW 19:06:44 15° NW visible
29 Jan -2.2 18:18:16 10° NW 18:21:06 24° N 18:21:10 24° N visible
30 Jan -2.2 17:30:33 10° WNW 17:33:24 24° N 17:35:36 14° NE visible
30 Jan -1.0 19:07:42 10° NW 19:08:34 16° NW 19:08:34 16° NW visible
31 Jan -2.5 18:20:09 10° NW 18:23:01 29° N 18:23:01 29° N visible
01 Feb -2.3 17:32:33 10° NW 17:35:27 26° N 17:37:31 15° ENE visible
01 Feb -1.2 19:09:20 10° NW 19:10:29 19° NW 19:10:29 19° NW visible
02 Feb -3.3 18:21:49 10° NW 18:25:01 45° NNE 18:25:01 45° NNE visible
03 Feb -2.9 17:34:16 10° NW 17:37:25 34° NNE 17:39:38 16° ENE visible
03 Feb -1.4 19:11:02 10° WNW 19:12:36 24° WNW 19:12:36 24° WNW visible
04 Feb -3.8 18:23:24 10° WNW 18:26:48 86° SSW 18:27:19 61° SE visible
05 Feb -3.7 17:35:49 10° NW 17:39:12 64° NNE 17:42:10 13° ESE visible
05 Feb -1.2 19:13:08 10° W 19:15:10 20° WSW 19:15:10 20° WSW visible
